User: anonymous   Login
Location: Arbon
(43.0005°N, 0.7472°E)
Time: 06:46:53
(UTC+00:00)
Language:

Explorer 7 - Orbit

View from above orbital plane
View from above orbital plane
View from above satellite
View from above satellite

Ground track
Ground track

The orbit data is extracted from the following two-line orbital elements,

1    22U 59009A   20331.77239124  .00000968  00000-0  94510-4 0  9997
2    22  50.2849  60.3815 0139365 158.9895 201.6856 14.95308391249612
Epoch (UTC): 26 November 2020 18:32:14
Eccentricity: 0.0139365
inclination: 50.2849°
perigee height: 484 km
apogee height: 678 km
right ascension of ascending node: 60.3815°
argument of perigee: 158.9895°
revolutions per day: 14.95308391
mean anomaly at epoch: 201.6856°
orbit number at epoch: 24961

The dashed part of the orbit path shows where the satellite is in the earth's shadow,  

DLR